| time (UTC) | temp F | wind direction | speed MPH | gust MPH | rain 1hr in | rain 24hr in | rain mn in | humidity % | barometer mb |
| 20260904225432 | 70 | 272 | 2.0 | 4.0 | 0.00 | 0.00 | 0.00 | 47 | 1018.3 |
| 20260904224434 | 69 | 214 | 1.0 | 3.0 | 0.00 | 0.00 | 0.00 | 49 | 1018.4 |
| 20260904223532 | 69 | 219 | 1.0 | 4.0 | 0.00 | 0.00 | 0.00 | 49 | 1018.4 |
| 20260904222632 | 69 | 283 | 3.0 | 7.0 | 0.00 | 0.00 | 0.00 | 47 | 1018.4 |
| 20260904221633 | 70 | 162 | 1.0 | 3.0 | 0.00 | 0.00 | 0.00 | 45 | 1018.4 |
| 20260904220635 | 70 | 198 | 1.0 | 4.0 | 0.00 | 0.00 | 0.00 | 46 | 1018.3 |
| 20260904215732 | 70 | 162 | 1.0 | 5.0 | 0.00 | 0.00 | 0.00 | 46 | 1018.4 |
| 20260904214734 | 70 | 284 | 1.0 | 5.0 | 0.00 | 0.00 | 0.00 | 47 | 1018.3 |
| 20260904212733 | 69 | 213 | 2.0 | 6.0 | 0.00 | 0.00 | 0.00 | 47 | 1018.6 |
| 20260904211831 | 69 | 202 | 2.0 | 8.0 | 0.00 | 0.00 | 0.00 | 48 | 1018.5 |
| 20260904210832 | 69 | 206 | 1.0 | 6.0 | 0.00 | 0.00 | 0.00 | 49 | 1018.6 |
| 20260904205849 | 67 | 195 | 2.0 | 6.0 | 0.00 | 0.00 | 0.00 | 51 | 1018.5 |
| 20260904205735 | 67 | 225 | 1.0 | 7.0 | 0.00 | 0.00 | 0.00 | 50 | 1018.5 |
| 20260904203732 | 68 | 222 | 3.0 | 6.0 | 0.00 | 0.00 | 0.00 | 50 | 1018.4 |
| 20260904202735 | 68 | 181 | 3.0 | 6.0 | 0.00 | 0.00 | 0.00 | 51 | 1018.2 |
| 20260904201832 | 67 | 150 | 0.0 | 3.0 | 0.00 | 0.00 | 0.00 | 52 | 1018.2 |
| 20260904201733 | 67 | 140 | 1.0 | 4.0 | 0.00 | 0.00 | 0.00 | 52 | 1018.2 |
| 20260904200734 | 67 | 173 | 4.0 | 9.0 | 0.00 | 0.00 | 0.00 | 52 | 1018.3 |
| 20260904200633 | 67 | 193 | 3.0 | 8.0 | 0.00 | 0.00 | 0.00 | 52 | 1018.3 |
| 20260904195632 | 66 | 260 | 4.0 | 8.0 | 0.00 | 0.00 | 0.00 | 51 | 1018.1 |
| 20260904193732 | 67 | 238 | 6.0 | 10.0 | 0.00 | 0.00 | 0.00 | 49 | 1018.2 |
| 20260904192733 | 68 | 219 | 3.0 | 6.0 | 0.00 | 0.00 | 0.00 | 48 | 1018.2 |
| 20260904192632 | 68 | 240 | 2.0 | 5.0 | 0.00 | 0.00 | 0.00 | 48 | 1018.2 |
| 20260904191633 | 68 | 242 | 3.0 | 10.0 | 0.00 | 0.00 | 0.00 | 48 | 1018.0 |
| 20260904190733 | 67 | 247 | 1.0 | 4.0 | 0.00 | 0.00 | 0.00 | 46 | 1018.2 |
| 20260904185732 | 68 | 259 | 3.0 | 4.0 | 0.00 | 0.00 | 0.00 | 45 | 1018.2 |
| 20260904184731 | 68 | 235 | 1.0 | 4.0 | 0.00 | 0.00 | 0.00 | 46 | 1018.1 |
| 20260904183733 | 67 | 153 | 2.0 | 5.0 | 0.00 | 0.00 | 0.00 | 48 | 1018.3 |
| 20260904181832 | 66 | 144 | 1.0 | 4.0 | 0.00 | 0.00 | 0.00 | 47 | 1018.2 |
| 20260904180831 | 66 | 94 | 0.0 | 2.0 | 0.00 | 0.00 | 0.00 | 46 | 1018.0 |
| 20260904175832 | 66 | 145 | 0.0 | 2.0 | 0.00 | 0.00 | 0.00 | 45 | 1017.9 |
| 20260904173832 | 66 | 96 | 4.0 | 8.0 | 0.00 | 0.00 | 0.00 | 44 | 1017.9 |
| 20260904171932 | 66 | 112 | 0.0 | 2.0 | 0.00 | 0.00 | 0.00 | 44 | 1017.8 |
| 20260904170933 | 66 | 22 | 2.0 | 4.0 | 0.00 | 0.00 | 0.00 | 44 | 1017.7 |
| 20260904165932 | 65 | 147 | 1.0 | 5.0 | 0.00 | 0.00 | 0.00 | 46 | 1017.8 |
| 20260904164032 | 66 | 7 | 1.0 | 3.0 | 0.00 | 0.00 | 0.00 | 47 | 1017.9 |
| 20260904163132 | 64 | 45 | 0.0 | 1.0 | 0.00 | 0.00 | 0.00 | 49 | 1017.9 |
| 20260904162133 | 63 | 180 | 0.0 | 0.0 | 0.00 | 0.00 | 0.00 | 54 | 1017.9 |
| 20260904161132 | 61 | 225 | 0.0 | 0.0 | 0.00 | 0.00 | 0.00 | 60 | 1017.7 |
| 20260904160133 | 59 | 225 | 0.0 | 0.0 | 0.00 | 0.00 | 0.00 | 61 | 1018.0 |
| 20260904155131 | 56 | 225 | 0.0 | 0.0 | 0.00 | 0.00 | 0.00 | 70 | 1018.0 |
| 20260904154134 | 53 | 225 | 0.0 | 0.0 | 0.00 | 0.00 | 0.00 | 74 | 1018.2 |
| 20260904153231 | 51 | 225 | 0.0 | 0.0 | 0.00 | 0.00 | 0.00 | 79 | 1018.2 |
| 20260904153133 | 51 | 225 | 0.0 | 0.0 | 0.00 | 0.00 | 0.00 | 81 | 1018.3 |
| 20260904145131 | 39 | 225 | 0.0 | 0.0 | 0.00 | 0.00 | 0.00 | 98 | 1017.8 |
| 20260904144132 | 38 | 225 | 0.0 | 0.0 | 0.00 | 0.00 | 0.00 | 97 | 1017.6 |
| 20260904143133 | 37 | 225 | 0.0 | 0.0 | 0.00 | 0.00 | 0.00 | 97 | 1017.6 |
| 20260904143035 | 37 | 225 | 0.0 | 0.0 | 0.00 | 0.00 | 0.00 | 96 | 1017.6 |
| 20260904142033 | 37 | 225 | 0.0 | 0.0 | 0.00 | 0.00 | 0.00 | 97 | 1017.6 |
| 20260904141931 | 37 | 225 | 0.0 | 0.0 | 0.00 | 0.00 | 0.00 | 97 | 1017.6 |
| 20260904140932 | 36 | 225 | 0.0 | 0.0 | 0.00 | 0.00 | 0.00 | 97 | 1017.4 |
| 20260904135934 | 36 | 225 | 0.0 | 0.0 | 0.00 | 0.00 | 0.00 | 97 | 1017.4 |
| 20260904135834 | 36 | 225 | 0.0 | 0.0 | 0.00 | 0.00 | 0.00 | 97 | 1017.4 |
| 20260904134931 | 36 | 225 | 0.0 | 0.0 | 0.00 | 0.00 | 0.00 | 97 | 1017.4 |
| 20260904133932 | 36 | 225 | 0.0 | 0.0 | 0.00 | 0.00 | 0.00 | 96 | 1017.2 |
| 20260904132934 | 36 | 225 | 0.0 | 0.0 | 0.00 | 0.00 | 0.00 | 97 | 1017.1 |
| 20260904132833 | 36 | 225 | 0.0 | 0.0 | 0.00 | 0.00 | 0.00 | 97 | 1017.1 |
| 20260904131932 | 36 | 225 | 0.0 | 0.0 | 0.00 | 0.00 | 0.00 | 96 | 1017.1 |
| 20260904130932 | 36 | 225 | 0.0 | 0.0 | 0.00 | 0.00 | 0.00 | 96 | 1017.1 |
| 20260904130031 | 37 | 225 | 0.0 | 0.0 | 0.00 | 0.00 | 0.00 | 97 | 1017.1 |
| 20260904125032 | 37 | 225 | 0.0 | 0.0 | 0.00 | 0.00 | 0.00 | 97 | 1016.9 |
| 20260904122033 | 37 | 225 | 0.0 | 0.0 | 0.00 | 0.00 | 0.00 | 96 | 1017.0 |
| 20260904121031 | 37 | 225 | 0.0 | 0.0 | 0.00 | 0.00 | 0.00 | 96 | 1017.1 |
| 20260904115933 | 37 | 225 | 0.0 | 0.0 | 0.00 | 0.00 | 0.00 | 96 | 1017.1 |
| 20260904114932 | 37 | 225 | 0.0 | 0.0 | 0.00 | 0.00 | 0.00 | 96 | 1017.2 |
| 20260904113932 | 37 | 225 | 0.0 | 0.0 | 0.00 | 0.00 | 0.00 | 94 | 1017.1 |
| 20260904112931 | 37 | 225 | 0.0 | 0.0 | 0.00 | 0.00 | 0.00 | 96 | 1017.3 |
| 20260904111933 | 37 | 225 | 0.0 | 0.0 | 0.00 | 0.00 | 0.00 | 95 | 1017.1 |
| 20260904110933 | 38 | 225 | 0.0 | 0.0 | 0.00 | 0.00 | 0.00 | 95 | 1017.3 |
| 20260904105931 | 38 | 225 | 0.0 | 0.0 | 0.00 | 0.00 | 0.00 | 95 | 1017.3 |
| 20260904104030 | 38 | 225 | 0.0 | 0.0 | 0.00 | 0.00 | 0.00 | 95 | 1017.1 |
| 20260904103032 | 39 | 225 | 0.0 | 0.0 | 0.00 | 0.00 | 0.00 | 95 | 1017.1 |
| 20260904102031 | 39 | 225 | 0.0 | 0.0 | 0.00 | 0.00 | 0.00 | 95 | 1017.0 |
| 20260904100048 | 39 | 225 | 0.0 | 0.0 | 0.00 | 0.00 | 0.00 | 95 | 1016.8 |
| 20260904095930 | 39 | 225 | 0.0 | 0.0 | 0.00 | 0.00 | 0.00 | 95 | 1016.9 |
| 20260904094931 | 39 | 225 | 0.0 | 0.0 | 0.00 | 0.00 | 0.00 | 95 | 1017.0 |
| 20260904093933 | 39 | 225 | 0.0 | 0.0 | 0.00 | 0.00 | 0.00 | 95 | 1016.9 |
| 20260904093835 | 39 | 225 | 0.0 | 0.0 | 0.00 | 0.00 | 0.00 | 95 | 1016.9 |
| 20260904092832 | 39 | 225 | 0.0 | 0.0 | 0.00 | 0.00 | 0.00 | 94 | 1016.8 |
| 20260904091833 | 39 | 225 | 0.0 | 0.0 | 0.00 | 0.00 | 0.00 | 94 | 1017.0 |
| 20260904090031 | 40 | 225 | 0.0 | 0.0 | 0.00 | 0.00 | 0.00 | 93 | 1017.1 |
| 20260904085033 | 40 | 225 | 0.0 | 0.0 | 0.00 | 0.00 | 0.00 | 93 | 1017.1 |
| 20260904084031 | 40 | 225 | 0.0 | 0.0 | 0.00 | 0.00 | 0.00 | 93 | 1017.1 |
| 20260904083130 | 40 | 225 | 0.0 | 0.0 | 0.00 | 0.00 | 0.00 | 93 | 1017.1 |
| 20260904081134 | 40 | 225 | 0.0 | 0.0 | 0.00 | 0.00 | 0.00 | 92 | 1017.2 |
| 20260904081032 | 40 | 225 | 0.0 | 0.0 | 0.00 | 0.00 | 0.00 | 92 | 1017.2 |
| 20260904075031 | 41 | 225 | 0.0 | 0.0 | 0.00 | 0.00 | 0.00 | 90 | 1017.4 |
| 20260904074033 | 41 | 225 | 0.0 | 0.0 | 0.00 | 0.00 | 0.00 | 91 | 1017.3 |
| 20260904073130 | 41 | 225 | 0.0 | 0.0 | 0.00 | 0.00 | 0.00 | 90 | 1017.2 |
| 20260904072132 | 41 | 225 | 0.0 | 0.0 | 0.00 | 0.00 | 0.00 | 90 | 1017.4 |
| 20260904071131 | 41 | 225 | 0.0 | 0.0 | 0.00 | 0.00 | 0.00 | 90 | 1017.4 |
| 20260904070131 | 42 | 225 | 0.0 | 0.0 | 0.00 | 0.00 | 0.00 | 89 | 1017.3 |
| 20260904065218 | 42 | 225 | 0.0 | 0.0 | 0.00 | 0.00 | 0.00 | 89 | 1017.4 |
| 20260904064217 | 42 | 225 | 0.0 | 0.0 | 0.00 | 0.00 | 0.00 | 87 | 1017.6 |
| 20260904063215 | 43 | 225 | 0.0 | 0.0 | 0.00 | 0.00 | 0.00 | 87 | 1017.6 |
| 20260904062217 | 43 | 225 | 0.0 | 0.0 | 0.00 | 0.00 | 0.00 | 87 | 1017.6 |
| 20260904061218 | 43 | 225 | 0.0 | 0.0 | 0.00 | 0.00 | 0.00 | 85 | 1017.6 |
| 20260904060217 | 44 | 225 | 0.0 | 0.0 | 0.00 | 0.00 | 0.00 | 86 | 1017.6 |
| 20260904055315 | 44 | 225 | 0.0 | 0.0 | 0.00 | 0.00 | 0.00 | 85 | 1017.6 |
| 20260904055218 | 44 | 225 | 0.0 | 0.0 | 0.00 | 0.00 | 0.00 | 85 | 1017.4 |
| 20260904054216 | 44 | 225 | 0.0 | 0.0 | 0.00 | 0.00 | 0.00 | 84 | 1017.6 |
| 20260904053217 | 45 | 225 | 0.0 | 0.0 | 0.00 | 0.00 | 0.00 | 84 | 1017.6 |
| 20260904052218 | 45 | 225 | 0.0 | 0.0 | 0.00 | 0.00 | 0.00 | 83 | 1017.7 |
| 20260904051215 | 45 | 225 | 0.0 | 0.0 | 0.00 | 0.00 | 0.00 | 82 | 1017.6 |
| 20260904045216 | 46 | 225 | 0.0 | 0.0 | 0.00 | 0.00 | 0.00 | 81 | 1017.9 |
| 20260904044218 | 46 | 225 | 0.0 | 0.0 | 0.00 | 0.00 | 0.00 | 80 | 1018.0 |
| 20260904043218 | 47 | 225 | 0.0 | 0.0 | 0.00 | 0.00 | 0.00 | 79 | 1017.9 |
| 20260904043117 | 47 | 225 | 0.0 | 0.0 | 0.00 | 0.00 | 0.00 | 79 | 1017.6 |
| 20260904042214 | 48 | 225 | 0.0 | 0.0 | 0.00 | 0.00 | 0.00 | 77 | 1017.8 |
| 20260904041231 | 48 | 225 | 0.0 | 0.0 | 0.00 | 0.00 | 0.00 | 76 | 1017.8 |
| 20260904040315 | 49 | 225 | 0.0 | 0.0 | 0.00 | 0.00 | 0.00 | 76 | 1017.8 |
| 20260904035316 | 49 | 225 | 0.0 | 0.0 | 0.00 | 0.00 | 0.00 | 75 | 1017.7 |
| 20260904034316 | 50 | 225 | 0.0 | 0.0 | 0.00 | 0.00 | 0.00 | 74 | 1017.7 |
| 20260904034218 | 50 | 225 | 0.0 | 0.0 | 0.00 | 0.00 | 0.00 | 75 | 1017.6 |
| 20260904033315 | 51 | 225 | 0.0 | 0.0 | 0.00 | 0.00 | 0.00 | 75 | 1017.6 |
| 20260904032319 | 51 | 225 | 0.0 | 0.0 | 0.00 | 0.00 | 0.00 | 73 | 1017.6 |
| 20260904025417 | 54 | 225 | 0.0 | 0.0 | 0.00 | 0.00 | 0.00 | 70 | 1017.4 |
| 20260904023416 | 55 | 225 | 0.0 | 0.0 | 0.00 | 0.00 | 0.00 | 68 | 1017.4 |
| 20260904023315 | 55 | 225 | 0.0 | 0.0 | 0.00 | 0.00 | 0.00 | 67 | 1017.4 |
| 20260904021316 | 58 | 225 | 0.0 | 0.0 | 0.00 | 0.00 | 0.00 | 62 | 1017.6 |
| 20260904020415 | 59 | 225 | 0.0 | 0.0 | 0.00 | 0.00 | 0.00 | 60 | 1017.6 |
| 20260904015416 | 60 | 225 | 0.0 | 0.0 | 0.00 | 0.00 | 0.00 | 58 | 1017.6 |
| 20260904012417 | 62 | 180 | 0.0 | 1.0 | 0.00 | 0.00 | 0.00 | 52 | 1017.8 |
| 20260904012319 | 62 | 180 | 0.0 | 0.0 | 0.00 | 0.00 | 0.00 | 52 | 1017.6 |
| 20260904011415 | 63 | 180 | 0.0 | 0.0 | 0.00 | 0.00 | 0.00 | 50 | 1017.6 |
| 20260904010415 | 65 | 7 | 0.0 | 2.0 | 0.00 | 0.00 | 0.00 | 48 | 1017.6 |
| 20260904004517 | 67 | 177 | 3.0 | 5.0 | 0.00 | 0.00 | 0.00 | 45 | 1017.6 |
| 20260904003515 | 68 | 252 | 1.0 | 4.0 | 0.00 | 0.00 | 0.00 | 44 | 1017.6 |
| 20260904002516 | 67 | 185 | 2.0 | 4.0 | 0.00 | 0.00 | 0.00 | 43 | 1017.4 |
| 20260904002414 | 67 | 235 | 2.0 | 5.0 | 0.00 | 0.00 | 0.00 | 43 | 1017.4 |
| 20260904001416 | 68 | 192 | 3.0 | 5.0 | 0.00 | 0.00 | 0.00 | 44 | 1017.6 |
| 20260904000418 | 68 | 225 | 0.0 | 2.0 | 0.00 | 0.00 | 0.00 | 43 | 1017.5 |
| 20260903235415 | 68 | 279 | 2.0 | 5.0 | 0.00 | 0.00 | 0.00 | 42 | 1017.5 |
| 20260903234316 | 69 | 143 | 0.0 | 3.0 | 0.00 | 0.00 | 0.00 | 42 | 1017.6 |
| 20260903233317 | 69 | 225 | 2.0 | 5.0 | 0.00 | 0.00 | 0.00 | 43 | 1017.6 |
| 20260903233215 | 69 | 191 | 3.0 | 5.0 | 0.00 | 0.00 | 0.00 | 43 | 1017.6 |
| 20260903231315 | 69 | 226 | 4.0 | 7.0 | 0.00 | 0.00 | 0.00 | 42 | 1017.6 |
| 20260903230316 | 69 | 239 | 1.0 | 5.0 | 0.00 | 0.00 | 0.00 | 42 | 1017.8 |